GW5624 Weather Reports


time (UTC)temp
C
wind
direction
speed
KPH
gust
KPH
rain 1hr
cm
rain 24hr
cm
rain mn
cm
humidity
%
barometer
mb
20260502151522 8 288 11.3 24.1 0.00 0.00 0.00 44 1014.1
20260502123026 5 123 3.2 4.8 0.00 0.00 0.00 64 1014.0
20260502121510 5 204 0.0 1.6 0.00 0.00 0.00 68 1013.8
20260502114520 3 213 0.0 1.6 0.00 0.00 0.00 75 1013.9
20260502113025 3 106 0.0 3.2 0.00 0.00 0.00 76 1013.7
20260502111526 2 240 0.0 1.6 0.00 0.00 0.00 77 1013.6
20260502110014 3 99 0.0 3.2 0.00 0.00 0.00 75 1013.5
20260502104520 3 292 1.6 4.8 0.00 0.00 0.00 73 1013.5
20260502103053 3 289 1.6 6.4 0.00 0.00 0.00 75 1013.8
20260502101528 3 255 0.0 3.2 0.00 0.00 0.00 74 1013.6
20260502091522 3 302 0.0 3.2 0.00 0.00 0.00 74 1013.9
20260502071526 5 5 1.6 12.9 0.00 0.00 0.00 71 1013.7
20260502070022 4 288 3.2 4.8 0.00 0.00 0.00 70 1013.8
20260502064525 5 332 0.0 12.9 0.00 0.00 0.00 65 1013.6
20260502063026 5 306 1.6 4.8 0.00 0.00 0.00 65 1013.7
20260502061529 5 304 1.6 3.2 0.00 0.00 0.00 67 1013.7
20260502060015 6 312 1.6 8.0 0.00 0.00 0.00 69 1013.7
20260502054521 6 338 3.2 9.7 0.00 0.00 0.00 67 1013.8
20260502053024 6 20 4.8 16.1 0.00 0.00 0.00 67 1014.0
20260502051527 7 347 6.4 12.9 0.00 0.00 0.00 68 1013.9
20260502050012 7 30 3.2 14.5 0.00 0.00 0.00 68 1014.0
20260502044519 7 339 3.2 8.0 0.00 0.00 0.00 68 1014.0
20260502043028 7 321 9.7 17.7 0.00 0.00 0.00 68 1014.1
20260502041529 7 358 9.7 17.7 0.00 0.00 0.00 70 1014.0
20260502040028 7 284 4.8 14.5 0.00 0.00 0.00 72 1014.0
20260502034518 7 221 0.0 16.1 0.00 0.00 0.00 72 1014.1
20260502033018 7 345 3.2 20.9 0.00 0.00 0.00 70 1013.9
20260502031524 7 341 4.8 19.3 0.00 0.00 0.00 69 1013.9
20260502030028 7 13 8.0 17.7 0.00 0.00 0.00 68 1013.7
20260502024527 7 199 6.4 17.7 0.00 0.00 0.00 67 1013.6
20260502023015 8 353 8.0 25.7 0.00 0.00 0.00 67 1013.5
20260502021521 8 38 6.4 33.8 0.00 0.00 0.00 67 1013.1
20260502020026 8 340 9.7 24.1 0.00 0.00 0.00 65 1012.9
20260502014527 9 353 11.3 25.7 0.00 0.00 0.00 68 1012.5
20260502013030 9 347 12.9 24.1 0.00 0.00 0.00 68 1012.5
20260502011529 9 23 16.1 32.2 0.00 0.00 0.00 68 1012.2
20260502010025 10 12 8.0 25.7 0.00 0.00 0.00 69 1012.1
20260502004526 10 360 9.7 24.1 0.00 0.00 0.00 69 1011.9
20260502003029 10 59 9.7 19.3 0.00 0.00 0.00 66 1011.5
20260502001530 11 29 8.0 20.9 0.00 0.00 0.00 65 1011.1
20260502000029 11 18 4.8 19.3 0.00 0.00 0.00 62 1010.8
20260501234522 12 11 6.4 25.7 0.00 0.00 0.00 60 1010.4
20260501233027 12 323 11.3 25.7 0.00 0.00 0.00 55 1009.9
20260501231526 13 281 8.0 20.9 0.00 0.00 0.00 51 1010.1
20260501230014 13 300 9.7 25.7 0.00 0.00 0.00 48 1010.0
20260501224521 15 11 6.4 24.1 0.00 0.00 0.00 43 1009.9
20260501223033 16 270 9.7 19.3 0.00 0.00 0.00 38 1009.9
20260501221531 15 228 4.8 16.1 0.00 0.00 0.00 37 1009.6
20260501220028 16 273 8.0 17.7 0.00 0.00 0.00 35 1009.6
20260501214527 16 326 8.0 19.3 0.00 0.00 0.00 32 1009.7
20260501213021 17 309 6.4 22.5 0.00 0.00 0.00 33 1009.6
20260501211524 17 231 6.4 17.7 0.00 0.00 0.00 34 1009.5
20260501210036 17 295 6.4 24.1 0.00 0.00 0.00 31 1009.5
20260501204509 17 294 11.3 30.6 0.00 0.00 0.00 32 1009.6
20260501203025 17 264 11.3 25.7 0.00 0.00 0.00 31 1009.5
20260501201524 17 179 6.4 20.9 0.00 0.00 0.00 28 1009.4
20260501200024 17 252 9.7 32.2 0.00 0.00 0.00 26 1009.5
20260501194508 17 245 4.8 19.3 0.00 0.00 0.00 30 1009.8
20260501193011 17 139 4.8 17.7 0.00 0.00 0.00 33 1009.9
20260501191516 17 139 9.7 24.1 0.00 0.00 0.00 34 1010.2
20260501190022 17 150 8.0 29.0 0.00 0.00 0.00 35 1010.3
20260501184526 17 231 8.0 16.1 0.00 0.00 0.00 37 1010.5
20260501183011 16 235 3.2 12.9 0.00 0.00 0.00 39 1010.6
20260501181513 16 290 8.0 16.1 0.00 0.00 0.00 35 1010.8
20260501180021 16 245 9.7 19.3 0.00 0.00 0.00 36 1011.1
20260501174524 16 98 6.4 19.3 0.00 0.00 0.00 39 1011.4
20260501173029 15 243 8.0 22.5 0.00 0.00 0.00 40 1011.6
20260501171511 15 280 9.7 16.1 0.00 0.00 0.00 41 1011.6
20260501170015 15 130 6.4 16.1 0.00 0.00 0.00 43 1011.9
20260501164522 14 150 8.0 20.9 0.00 0.00 0.00 43 1012.3
20260501163026 13 253 3.2 30.6 0.00 0.00 0.00 52 1012.5
20260501161526 13 124 6.4 17.7 0.00 0.00 0.00 46 1012.7
20260501160020 13 266 9.7 16.1 0.00 0.00 0.00 43 1012.8